GAOFEN 1

Last updated on Tue Nov 21 2023 00:02:24 GMT+0000 (Coordinated Universal Time)

1 39150U 13018A 23324.58641085 .00000710 00000+0 10906-3 0 9998 2 39150 98.0148 33.9085 0021428 51.6568 308.6563 14.76496374569592

Satellite not in orbit

GAOFEN 1